Find PUNCH-WFI-2

NORAD ID: 63181 Int'l Des: 2025-047 Owner: SWRI/GSFC Country: US operational
LEOCIRCULARRETROGRADESSO

Live Position

Loading 3D Globe...

About PUNCH-WFI-2

Description loading...

Upcoming Passes

Passes for default location (London). Set your location on the main map for personalized predictions.

Altitude History

Loading altitude history...

Two-Line Element Set

1 63181U 25047D 26109.25869631 .00000370 00000-0 63449-4 0 9995
2 63181 97.9569 295.4396 0009746 19.8845 340.2742 14.74286141 59379
Epoch: Apr 19, 2026 • Age: 15 hours

Current Status

Altitude 643.7 km
Velocity 7.54 km/s
Sub-Earth Point 1.11°N, 134.81°E
Launch Date Mar 12, 2025
Age 1.1 years
Type other

Technical Details

Classification Payload
Mass 64.00 kg
Dry Mass 64.00 kg
Total Mass 64.00 kg
Length 1.00 m
Diameter 0.50 m
Span 1.00 m
Shape Box+panel
Manufacturer SWRI
Bus Type Punch
Phase Status In Orbit
Owner/State SWRI/GSFC/US

Most Searched